Regional Weather Roundup
Issued by NWS Cleveland, OH

Home | Current Version | Previous Version | Graphics & Text | Print | Product List | Glossary On
Versions: 1 2 3 4 5 6 7 8 9 10 11 12 13 14 15 16 17 18 19 20 21 22 23 24 25 26 27 28 29 30 31 32 33 34 35 36 37 38 39 40 41 42 43 44 45 46 47 48 49 50
000
ASUS41 KCLE 281700
RWRCLE
OHIO REGIONAL WEATHER ROUNDUP
NATIONAL WEATHER SERVICE WILMINGTON, OH
100 PM EDT TUE JUL 28 2015

NOTE: "FAIR" INDICATES FEW OR NO CLOUDS BELOW 12,000 FEET WITH NO
SIGNIFICANT WEATHER AND/OR OBSTRUCTIONS TO VISIBILITY.

OHZ001>008-015>018-024>027-034-035-043-044-281800-
   NORTHWEST OHIO

CITY           SKY/WX    TMP DP  RH WIND       PRES   REMARKS
DEFIANCE       SUNNY     88  64  44 SE6       30.03S
FINDLAY        SUNNY     87  62  43 CALM      30.02R
TOLEDO EXPRESS SUNNY     87  62  43 VRB5      30.03S
TOLEDO EXEC    SUNNY     88  66  48 VRB3      30.04S HX  90
LIMA           SUNNY     87  64  46 VRB5      30.03S
$$

OHZ009>014-019>023-028>033-038-089-281800-
   NORTHEAST OHIO

CITY           SKY/WX    TMP DP  RH WIND       PRES   REMARKS
CLE-HOPKINS    MOSUNNY   87  65  47 N7        30.03F
CLE-LAKEFRONT  SUNNY     82  71  69 NE7       30.01F
CUY CO. ARPT   MOSUNNY   90  63  40 SE6       30.03F HX  90
LORAIN-ELYRIA  SUNNY     87  62  43 CALM      30.03F
ASHTABULA      MOSUNNY   86  61  42 VRB5      30.04F
AKRON-CANTON   MOSUNNY   87  64  46 E6        30.03F
WOOSTER        NOT AVBL
MANSFIELD      MOSUNNY   86  65  49 NE6       30.04F
YOUNGSTOWN     MOSUNNY   86  59  39 SE8       30.04F
$$

OHZ042-051>053-060>062-070>072-077>081-281800-
  SOUTHWEST OHIO

CITY           SKY/WX    TMP DP  RH WIND       PRES   REMARKS
CINC-COVINGTON PTSUNNY   89  73  59 VRB5      30.00F HX  97
CINC-LUNKEN    SUNNY     86  72  62 CALM      29.99S HX  92
HAMILTON       MOSUNNY   89  72  56 VRB3      30.01S HX  96
DAYTON         NOT AVBL
WRIGHT-PAT AFB NOT AVBL
DAYTON GENERAL PTSUNNY   85  71  63 E3        30.01F HX  90
WILMINGTON     MOSUNNY   85  72  65 CALM      30.02S HX  91
$$

OHZ036-037-039>041-045>050-054>059-063>069-073>076-082>088-281800-
  CENTRAL AND SOUTHEAST OHIO

CITY           SKY/WX    TMP DP  RH WIND       PRES   REMARKS
COLUMBUS       MOSUNNY   87  66  49 VRB3      30.00S
OSU AIRPORT    PTSUNNY   87  67  51 VRB3      30.01S HX  90
BOLTON FIELD   SUNNY     84  70  61 SE3       30.02S
RICKENBACK AFB NOT AVBL
NEWARK         MOSUNNY   88  69  53 E3        30.00F HX  92
MARION         MOSUNNY   87  64  46 MISG      30.03S
LANCASTER      PTSUNNY   87  69  54 VRB5      30.01S HX  91
ZANESVILLE     SUNNY     86  67  52 SE5       30.01S
NEW PHILLY     SUNNY     85  69  58 SE5       30.02F
$$


USA.gov is the U.S. government's official web portal to all federal, state and local government web resources and services.